| time (UTC) | temp C | wind direction | speed KPH | gust KPH | rain 1hr cm | rain 24hr cm | rain mn cm | humidity % | barometer mb |
| 20260504130418 | 11 | 231 | 14.5 | 20.9 | 0.00 | 0.00 | 0.00 | 46 | 1043.3 |
| 20260504110304 | 7 | 248 | 1.6 | 3.2 | 0.00 | 0.00 | 0.00 | 61 | 1043.4 |
| 20260504100223 | 5 | 242 | 1.6 | 3.2 | 0.00 | 0.00 | 0.00 | 67 | 1043.2 |
| 20260504081616 | 6 | 238 | 4.8 | 4.8 | 0.00 | 0.00 | 0.00 | 63 | 1043.5 |
| 20260504081111 | 6 | 252 | 1.6 | 6.4 | 0.00 | 0.00 | 0.00 | 62 | 1043.4 |
| 20260504080609 | 6 | 253 | 3.2 | 4.8 | 0.00 | 0.00 | 0.00 | 63 | 1043.3 |
| 20260504080105 | 6 | 255 | 0.0 | 4.8 | 0.00 | 0.00 | 0.00 | 63 | 1043.3 |
| 20260504050415 | 7 | 261 | 3.2 | 4.8 | 0.00 | 0.00 | 0.00 | 57 | 1043.0 |
| 20260504045913 | 7 | 247 | 4.8 | 4.8 | 0.00 | 0.00 | 0.00 | 56 | 1043.2 |
| 20260504045408 | 7 | 273 | 3.2 | 3.2 | 0.00 | 0.00 | 0.00 | 56 | 1043.1 |
| 20260504044905 | 7 | 248 | 3.2 | 4.8 | 0.00 | 0.00 | 0.00 | 56 | 1043.0 |
| 20260504044402 | 7 | 274 | 1.6 | 3.2 | 0.00 | 0.00 | 0.00 | 57 | 1042.9 |
| 20260504043900 | 7 | 268 | 3.2 | 3.2 | 0.00 | 0.00 | 0.00 | 56 | 1042.9 |
| 20260504043356 | 7 | 266 | 3.2 | 4.8 | 0.00 | 0.00 | 0.00 | 56 | 1042.9 |
| 20260504042854 | 7 | 261 | 3.2 | 3.2 | 0.00 | 0.00 | 0.00 | 56 | 1043.0 |
| 20260504042350 | 7 | 256 | 3.2 | 3.2 | 0.00 | 0.00 | 0.00 | 56 | 1042.7 |
| 20260504041846 | 7 | 266 | 3.2 | 3.2 | 0.00 | 0.00 | 0.00 | 57 | 1042.9 |
| 20260504041343 | 7 | 268 | 0.0 | 1.6 | 0.00 | 0.00 | 0.00 | 57 | 1042.8 |
| 20260504040839 | 7 | 263 | 1.6 | 3.2 | 0.00 | 0.00 | 0.00 | 56 | 1042.7 |
| 20260504040337 | 7 | 252 | 1.6 | 3.2 | 0.00 | 0.00 | 0.00 | 55 | 1042.8 |
| 20260504035832 | 7 | 247 | 4.8 | 4.8 | 0.00 | 0.00 | 0.00 | 55 | 1042.6 |
| 20260504035330 | 7 | 264 | 3.2 | 4.8 | 0.00 | 0.00 | 0.00 | 55 | 1042.6 |
| 20260504034827 | 7 | 236 | 4.8 | 6.4 | 0.00 | 0.00 | 0.00 | 55 | 1042.7 |
| 20260504034325 | 7 | 265 | 3.2 | 4.8 | 0.00 | 0.00 | 0.00 | 56 | 1042.8 |
| 20260504033821 | 8 | 260 | 1.6 | 4.8 | 0.00 | 0.00 | 0.00 | 55 | 1042.7 |
| 20260504033319 | 8 | 238 | 6.4 | 6.4 | 0.00 | 0.00 | 0.00 | 55 | 1042.5 |
| 20260504032815 | 8 | 239 | 3.2 | 9.7 | 0.00 | 0.00 | 0.00 | 55 | 1042.7 |
| 20260504032313 | 8 | 235 | 4.8 | 6.4 | 0.00 | 0.00 | 0.00 | 53 | 1042.8 |
| 20260504031810 | 8 | 266 | 3.2 | 9.7 | 0.00 | 0.00 | 0.00 | 53 | 1042.7 |
| 20260504031307 | 8 | 234 | 6.4 | 9.7 | 0.00 | 0.00 | 0.00 | 53 | 1042.6 |
| 20260504030803 | 8 | 238 | 4.8 | 6.4 | 0.00 | 0.00 | 0.00 | 53 | 1042.9 |
| 20260504030300 | 8 | 256 | 3.2 | 6.4 | 0.00 | 0.00 | 0.00 | 53 | 1042.8 |
| 20260504025756 | 8 | 264 | 1.6 | 3.2 | 0.00 | 0.00 | 0.00 | 53 | 1042.5 |
| 20260504025253 | 8 | 267 | 1.6 | 3.2 | 0.00 | 0.00 | 0.00 | 52 | 1042.6 |
| 20260504024750 | 8 | 240 | 3.2 | 4.8 | 0.00 | 0.00 | 0.00 | 51 | 1042.5 |
| 20260504024247 | 8 | 268 | 3.2 | 4.8 | 0.00 | 0.00 | 0.00 | 50 | 1042.7 |
| 20260504023744 | 8 | 254 | 3.2 | 4.8 | 0.00 | 0.00 | 0.00 | 50 | 1042.7 |
| 20260504023240 | 8 | 258 | 4.8 | 6.4 | 0.00 | 0.00 | 0.00 | 51 | 1042.6 |
| 20260504022736 | 8 | 267 | 3.2 | 4.8 | 0.00 | 0.00 | 0.00 | 52 | 1042.7 |
| 20260504022232 | 8 | 266 | 3.2 | 4.8 | 0.00 | 0.00 | 0.00 | 51 | 1042.7 |
| 20260504021730 | 9 | 251 | 3.2 | 4.8 | 0.00 | 0.00 | 0.00 | 50 | 1042.5 |
| 20260504021227 | 9 | 244 | 4.8 | 9.7 | 0.00 | 0.00 | 0.00 | 48 | 1042.8 |
| 20260504020723 | 8 | 248 | 3.2 | 4.8 | 0.00 | 0.00 | 0.00 | 49 | 1042.7 |
| 20260504020220 | 9 | 263 | 1.6 | 3.2 | 0.00 | 0.00 | 0.00 | 50 | 1042.7 |
| 20260504015716 | 8 | 230 | 1.6 | 3.2 | 0.00 | 0.00 | 0.00 | 51 | 1042.7 |
| 20260504015213 | 8 | 249 | 1.6 | 3.2 | 0.00 | 0.00 | 0.00 | 51 | 1042.8 |
| 20260504014708 | 8 | 250 | 0.0 | 0.0 | 0.00 | 0.00 | 0.00 | 51 | 1042.6 |
| 20260504014206 | 9 | 264 | 1.6 | 3.2 | 0.00 | 0.00 | 0.00 | 50 | 1042.5 |
| 20260504013703 | 9 | 249 | 0.0 | 3.2 | 0.00 | 0.00 | 0.00 | 49 | 1042.6 |
| 20260504013200 | 10 | 249 | 1.6 | 3.2 | 0.00 | 0.00 | 0.00 | 49 | 1042.7 |
| 20260504012657 | 9 | 249 | 1.6 | 3.2 | 0.00 | 0.00 | 0.00 | 50 | 1042.4 |
| 20260504012155 | 9 | 249 | 1.6 | 1.6 | 0.00 | 0.00 | 0.00 | 50 | 1042.2 |
| 20260504011652 | 9 | 249 | 0.0 | 1.6 | 0.00 | 0.00 | 0.00 | 49 | 1042.3 |
| 20260504011148 | 9 | 249 | 1.6 | 1.6 | 0.00 | 0.00 | 0.00 | 48 | 1042.2 |
| 20260504010644 | 10 | 254 | 1.6 | 3.2 | 0.00 | 0.00 | 0.00 | 48 | 1042.1 |
| 20260504010139 | 9 | 273 | 0.0 | 1.6 | 0.00 | 0.00 | 0.00 | 48 | 1042.1 |
| 20260504005637 | 10 | 271 | 0.0 | 1.6 | 0.00 | 0.00 | 0.00 | 46 | 1042.2 |
| 20260504005133 | 10 | 273 | 1.6 | 1.6 | 0.00 | 0.00 | 0.00 | 47 | 1041.9 |
| 20260504004632 | 10 | 272 | 1.6 | 3.2 | 0.00 | 0.00 | 0.00 | 46 | 1042.0 |
| 20260504004129 | 9 | 278 | 3.2 | 3.2 | 0.00 | 0.00 | 0.00 | 48 | 1042.2 |
| 20260504003625 | 10 | 274 | 3.2 | 3.2 | 0.00 | 0.00 | 0.00 | 48 | 1042.1 |
| 20260504003122 | 10 | 278 | 4.8 | 4.8 | 0.00 | 0.00 | 0.00 | 48 | 1042.1 |
| 20260504002618 | 10 | 273 | 1.6 | 3.2 | 0.00 | 0.00 | 0.00 | 47 | 1041.8 |
| 20260504002116 | 10 | 275 | 1.6 | 3.2 | 0.00 | 0.00 | 0.00 | 47 | 1041.8 |
| 20260504001614 | 10 | 276 | 1.6 | 3.2 | 0.00 | 0.00 | 0.00 | 45 | 1041.9 |
| 20260504001109 | 11 | 275 | 1.6 | 1.6 | 0.00 | 0.00 | 0.00 | 44 | 1041.8 |
| 20260504000607 | 11 | 270 | 1.6 | 3.2 | 0.00 | 0.00 | 0.00 | 42 | 1041.5 |
| 20260504000104 | 11 | 253 | 4.8 | 4.8 | 0.00 | 0.00 | 0.00 | 40 | 1041.7 |
| 20260503235603 | 12 | 267 | 4.8 | 4.8 | 0.00 | 0.00 | 0.00 | 39 | 1041.7 |
| 20260503235059 | 12 | 266 | 4.8 | 9.7 | 0.00 | 0.00 | 0.00 | 39 | 1041.8 |
| 20260503234557 | 12 | 246 | 6.4 | 9.7 | 0.00 | 0.00 | 0.00 | 38 | 1041.4 |
| 20260503234055 | 12 | 266 | 4.8 | 6.4 | 0.00 | 0.00 | 0.00 | 38 | 1041.7 |
| 20260503233551 | 12 | 266 | 1.6 | 4.8 | 0.00 | 0.00 | 0.00 | 39 | 1041.4 |
| 20260503233047 | 12 | 271 | 3.2 | 11.3 | 0.00 | 0.00 | 0.00 | 39 | 1041.5 |
| 20260503232544 | 12 | 266 | 9.7 | 12.9 | 0.00 | 0.00 | 0.00 | 37 | 1041.7 |
| 20260503232042 | 12 | 254 | 3.2 | 4.8 | 0.00 | 0.00 | 0.00 | 38 | 1041.7 |
| 20260503231539 | 12 | 275 | 3.2 | 6.4 | 0.00 | 0.00 | 0.00 | 37 | 1041.5 |
| 20260503231036 | 12 | 266 | 6.4 | 9.7 | 0.00 | 0.00 | 0.00 | 37 | 1041.7 |
| 20260503230532 | 12 | 282 | 9.7 | 14.5 | 0.00 | 0.00 | 0.00 | 37 | 1041.7 |
| 20260503230030 | 12 | 257 | 6.4 | 9.7 | 0.00 | 0.00 | 0.00 | 36 | 1041.3 |
| 20260503225527 | 12 | 247 | 6.4 | 9.7 | 0.00 | 0.00 | 0.00 | 36 | 1041.3 |
| 20260503225021 | 12 | 285 | 6.4 | 12.9 | 0.00 | 0.00 | 0.00 | 37 | 1041.5 |
| 20260503224519 | 13 | 277 | 9.7 | 17.7 | 0.00 | 0.00 | 0.00 | 36 | 1041.5 |
| 20260503224011 | 13 | 272 | 14.5 | 24.1 | 0.00 | 0.00 | 0.00 | 35 | 1041.4 |
| 20260503223509 | 13 | 193 | 11.3 | 16.1 | 0.00 | 0.00 | 0.00 | 36 | 1041.3 |
| 20260503223004 | 13 | 283 | 8.0 | 16.1 | 0.00 | 0.00 | 0.00 | 36 | 1041.3 |
| 20260503222503 | 13 | 269 | 8.0 | 17.7 | 0.00 | 0.00 | 0.00 | 36 | 1041.4 |
| 20260503222001 | 13 | 249 | 9.7 | 12.9 | 0.00 | 0.00 | 0.00 | 36 | 1041.3 |
| 20260503221459 | 12 | 291 | 11.3 | 17.7 | 0.00 | 0.00 | 0.00 | 36 | 1041.3 |
| 20260503220955 | 13 | 259 | 12.9 | 25.7 | 0.00 | 0.00 | 0.00 | 35 | 1041.5 |
| 20260503220446 | 12 | 277 | 11.3 | 12.9 | 0.00 | 0.00 | 0.00 | 36 | 1041.2 |
| 20260503215943 | 12 | 248 | 8.0 | 20.9 | 0.00 | 0.00 | 0.00 | 37 | 1041.8 |
| 20260503215439 | 13 | 274 | 8.0 | 17.7 | 0.00 | 0.00 | 0.00 | 36 | 1041.7 |
| 20260503214937 | 13 | 234 | 14.5 | 24.1 | 0.00 | 0.00 | 0.00 | 35 | 1041.5 |
| 20260503214435 | 12 | 268 | 9.7 | 25.7 | 0.00 | 0.00 | 0.00 | 36 | 1041.3 |
| 20260503213932 | 12 | 270 | 12.9 | 20.9 | 0.00 | 0.00 | 0.00 | 36 | 1041.7 |
| 20260503213430 | 13 | 253 | 16.1 | 29.0 | 0.00 | 0.00 | 0.00 | 35 | 1041.3 |
| 20260503212926 | 13 | 271 | 11.3 | 14.5 | 0.00 | 0.00 | 0.00 | 35 | 1041.3 |
| 20260503212424 | 13 | 281 | 19.3 | 30.6 | 0.00 | 0.00 | 0.00 | 35 | 1041.4 |
| 20260503211921 | 12 | 310 | 12.9 | 35.4 | 0.00 | 0.00 | 0.00 | 34 | 1041.4 |
| 20260503211418 | 13 | 255 | 17.7 | 22.5 | 0.00 | 0.00 | 0.00 | 33 | 1041.2 |
| 20260503210913 | 12 | 271 | 9.7 | 29.0 | 0.00 | 0.00 | 0.00 | 33 | 1041.1 |
| 20260503210410 | 12 | 252 | 14.5 | 16.1 | 0.00 | 0.00 | 0.00 | 33 | 1041.4 |
| 20260503205905 | 12 | 264 | 22.5 | 27.4 | 0.00 | 0.00 | 0.00 | 33 | 1041.7 |
| 20260503205403 | 13 | 302 | 17.7 | 24.1 | 0.00 | 0.00 | 0.00 | 32 | 1041.4 |
| 20260503204858 | 14 | 242 | 17.7 | 20.9 | 0.00 | 0.00 | 0.00 | 30 | 1041.0 |
| 20260503204356 | 13 | 277 | 17.7 | 22.5 | 0.00 | 0.00 | 0.00 | 32 | 1040.7 |
| 20260503203853 | 13 | 243 | 4.8 | 16.1 | 0.00 | 0.00 | 0.00 | 30 | 1041.1 |
| 20260503203350 | 13 | 276 | 12.9 | 22.5 | 0.00 | 0.00 | 0.00 | 31 | 1041.1 |
| 20260503202847 | 13 | 285 | 6.4 | 22.5 | 0.00 | 0.00 | 0.00 | 32 | 1040.9 |
| 20260503202345 | 13 | 281 | 12.9 | 27.4 | 0.00 | 0.00 | 0.00 | 31 | 1041.2 |
| 20260503201843 | 13 | 251 | 19.3 | 24.1 | 0.00 | 0.00 | 0.00 | 31 | 1041.2 |
| 20260503201340 | 12 | 229 | 11.3 | 17.7 | 0.00 | 0.00 | 0.00 | 31 | 1041.3 |
| 20260503200838 | 13 | 272 | 8.0 | 30.6 | 0.00 | 0.00 | 0.00 | 31 | 1041.2 |
| 20260503200333 | 13 | 276 | 20.9 | 25.7 | 0.00 | 0.00 | 0.00 | 30 | 1041.4 |
| 20260503195831 | 12 | 325 | 9.7 | 20.9 | 0.00 | 0.00 | 0.00 | 31 | 1041.3 |
| 20260503195327 | 13 | 258 | 12.9 | 29.0 | 0.00 | 0.00 | 0.00 | 30 | 1041.4 |
| 20260503194825 | 13 | 301 | 12.9 | 16.1 | 0.00 | 0.00 | 0.00 | 30 | 1041.3 |
| 20260503194320 | 12 | 270 | 11.3 | 16.1 | 0.00 | 0.00 | 0.00 | 33 | 1041.4 |
| 20260503193816 | 12 | 268 | 17.7 | 22.5 | 0.00 | 0.00 | 0.00 | 32 | 1041.8 |
| 20260503193313 | 12 | 271 | 27.4 | 33.8 | 0.00 | 0.00 | 0.00 | 31 | 1041.8 |
| 20260503192809 | 11 | 242 | 25.7 | 38.6 | 0.00 | 0.00 | 0.00 | 31 | 1041.8 |
| 20260503192305 | 12 | 231 | 20.9 | 37.0 | 0.00 | 0.00 | 0.00 | 32 | 1041.8 |
| 20260503191801 | 12 | 244 | 25.7 | 35.4 | 0.00 | 0.00 | 0.00 | 31 | 1042.0 |
| 20260503191258 | 12 | 245 | 16.1 | 35.4 | 0.00 | 0.00 | 0.00 | 33 | 1042.2 |
| 20260503190754 | 12 | 249 | 17.7 | 20.9 | 0.00 | 0.00 | 0.00 | 32 | 1042.2 |
| 20260503190251 | 12 | 323 | 8.0 | 24.1 | 0.00 | 0.00 | 0.00 | 33 | 1042.4 |
| 20260503185749 | 11 | 247 | 9.7 | 25.7 | 0.00 | 0.00 | 0.00 | 36 | 1042.3 |
| 20260503185244 | 11 | 245 | 12.9 | 37.0 | 0.00 | 0.00 | 0.00 | 33 | 1042.5 |
| 20260503184739 | 11 | 288 | 14.5 | 33.8 | 0.00 | 0.00 | 0.00 | 34 | 1042.5 |
| 20260503184236 | 11 | 242 | 14.5 | 20.9 | 0.00 | 0.00 | 0.00 | 33 | 1042.7 |
| 20260503183732 | 11 | 279 | 17.7 | 27.4 | 0.00 | 0.00 | 0.00 | 33 | 1042.6 |
| 20260503183229 | 11 | 239 | 6.4 | 17.7 | 0.00 | 0.00 | 0.00 | 35 | 1042.5 |
| 20260503182727 | 10 | 263 | 20.9 | 33.8 | 0.00 | 0.00 | 0.00 | 35 | 1042.8 |
| 20260503182226 | 10 | 269 | 8.0 | 30.6 | 0.00 | 0.00 | 0.00 | 35 | 1042.7 |
| 20260503181722 | 10 | 321 | 9.7 | 22.5 | 0.00 | 0.00 | 0.00 | 36 | 1043.0 |
| 20260503181219 | 10 | 279 | 20.9 | 35.4 | 0.00 | 0.00 | 0.00 | 36 | 1043.0 |
| 20260503180715 | 11 | 212 | 17.7 | 24.1 | 0.00 | 0.00 | 0.00 | 34 | 1042.9 |
| 20260503180214 | 11 | 262 | 6.4 | 22.5 | 0.00 | 0.00 | 0.00 | 35 | 1043.0 |
| 20260503175710 | 10 | 284 | 17.7 | 27.4 | 0.00 | 0.00 | 0.00 | 33 | 1043.2 |
| 20260503175208 | 10 | 262 | 17.7 | 30.6 | 0.00 | 0.00 | 0.00 | 35 | 1043.1 |
| 20260503174704 | 10 | 250 | 17.7 | 20.9 | 0.00 | 0.00 | 0.00 | 35 | 1043.0 |
| 20260503174202 | 10 | 273 | 24.1 | 30.6 | 0.00 | 0.00 | 0.00 | 36 | 1043.4 |
| 20260503173656 | 10 | 295 | 14.5 | 24.1 | 0.00 | 0.00 | 0.00 | 37 | 1043.5 |
| 20260503173152 | 10 | 291 | 20.9 | 29.0 | 0.00 | 0.00 | 0.00 | 36 | 1043.1 |
| 20260503172649 | 10 | 255 | 11.3 | 20.9 | 0.00 | 0.00 | 0.00 | 36 | 1043.0 |
| 20260503172146 | 10 | 332 | 17.7 | 27.4 | 0.00 | 0.00 | 0.00 | 34 | 1043.3 |
| 20260503171642 | 10 | 340 | 16.1 | 20.9 | 0.00 | 0.00 | 0.00 | 34 | 1043.4 |
| 20260503171140 | 10 | 253 | 9.7 | 33.8 | 0.00 | 0.00 | 0.00 | 36 | 1043.1 |
| 20260503170637 | 10 | 289 | 17.7 | 25.7 | 0.00 | 0.00 | 0.00 | 35 | 1043.3 |
| 20260503170134 | 10 | 233 | 8.0 | 25.7 | 0.00 | 0.00 | 0.00 | 37 | 1043.5 |
| 20260503150525 | 7 | 269 | 14.5 | 24.1 | 0.00 | 0.00 | 0.00 | 42 | 1044.0 |